When you browse on this site, cookies collect data to enhance your experience and personalize the content and advertising you see.
Visit our Privacy Policy to learn more. By continuing to use the site, you agree to this use of cookies and data.
  • In Romania
  • List of Countries
  • For 7 days
  • Water Temperature
  • Satellite Maps
  • Weather Map
  • Weather Widgets
  • user-avatar
    Login

    Hourly Weather Galata

    Today, 23 March, Saturday

    Time Temperature Precipitation Wind Pressure Humidity
    00:00 +9°C° 0 mm 2 mps 763 mmHg 67%
    01:00 +9°C° 0 mm 2 mps 763 mmHg 65%
    02:00 +8°C° 0 mm 3 mps 762 mmHg 64%
    03:00 +9°C° 0 mm 3 mps 762 mmHg 66%
    04:00 +9°C° 0 mm 3 mps 762 mmHg 68%
    05:00 +9°C° 0 mm 3 mps 762 mmHg 69%
    06:00 +10°C° 0 mm 4 mps 762 mmHg 69%
    07:00 +10°C° 0 mm 4 mps 762 mmHg 68%
    08:00 +11°C° 0 mm 4 mps 762 mmHg 68%
    09:00 +11°C° 0 mm 4 mps 762 mmHg 64%
    10:00 +12°C° 0 mm 4 mps 762 mmHg 59%
    11:00 +12°C° 0 mm 5 mps 762 mmHg 55%
    12:00 +12°C° 0 mm 5 mps 762 mmHg 53%
    13:00 +12°C° 0 mm 4 mps 762 mmHg 51%
    14:00 +11°C° 0 mm 4 mps 762 mmHg 49%
    15:00 +11°C° 0 mm 4 mps 762 mmHg 46%
    16:00 +11°C° 0 mm 4 mps 761 mmHg 43%
    17:00 +11°C° 0 mm 3 mps 761 mmHg 41%
    18:00 +10°C° 0 mm 3 mps 762 mmHg 44%
    19:00 +9°C° 0 mm 3 mps 762 mmHg 48%
    20:00 +8°C° 0 mm 2 mps 762 mmHg 51%
    21:00 +7°C° 0 mm 2 mps 762 mmHg 53%
    22:00 +7°C° 0 mm 1 mps 762 mmHg 55%
    23:00 +6°C° 0 mm 0 mps 763 mmHg 57%

    Tomorrow, 24 March, Sunday

    Time Temperature Precipitation Wind Pressure Humidity
    00:00 +6°C° 0 mm 1 mps 762 mmHg 57%
    01:00 +6°C° 0 mm 1 mps 762 mmHg 57%
    02:00 +5°C° 0 mm 2 mps 762 mmHg 57%
    03:00 +4°C° 0 mm 2 mps 762 mmHg 56%
    04:00 +3°C° 0 mm 3 mps 762 mmHg 55%
    05:00 +3°C° 0 mm 3 mps 762 mmHg 53%
    06:00 +4°C° 0 mm 3 mps 762 mmHg 52%
    07:00 +4°C° 0 mm 3 mps 762 mmHg 51%
    08:00 +5°C° 0 mm 4 mps 762 mmHg 49%
    09:00 +7°C° 0 mm 4 mps 762 mmHg 46%
    10:00 +8°C° 0 mm 4 mps 762 mmHg 43%
    11:00 +10°C° 0 mm 4 mps 762 mmHg 40%
    12:00 +11°C° 0 mm 3 mps 762 mmHg 39%
    13:00 +12°C° 0 mm 3 mps 761 mmHg 39%
    14:00 +12°C° 0 mm 3 mps 761 mmHg 38%
    15:00 +11°C° 0 mm 3 mps 761 mmHg 42%
    16:00 +11°C° 0 mm 3 mps 760 mmHg 46%
    17:00 +10°C° 0 mm 3 mps 760 mmHg 50%
    18:00 +9°C° 0 mm 3 mps 760 mmHg 57%
    19:00 +7°C° 0 mm 2 mps 760 mmHg 63%
    20:00 +6°C° 0 mm 2 mps 760 mmHg 70%
    21:00 +6°C° 0 mm 2 mps 760 mmHg 71%
    22:00 +6°C° 0 mm 2 mps 760 mmHg 72%
    23:00 +5°C° 0 mm 2 mps 760 mmHg 74%

    Day after tomorrow, 25 March, Monday

    Time Temperature Precipitation Wind Pressure Humidity
    00:00 +5°C° 0 mm 2 mps 759 mmHg 74%
    01:00 +5°C° 0 mm 2 mps 759 mmHg 74%
    02:00 +5°C° 0 mm 2 mps 759 mmHg 75%
    03:00 +5°C° 0 mm 2 mps 758 mmHg 74%
    04:00 +5°C° 0 mm 2 mps 758 mmHg 74%
    05:00 +5°C° 0 mm 2 mps 758 mmHg 74%
    06:00 +6°C° 0 mm 2 mps 757 mmHg 70%
    07:00 +7°C° 0 mm 2 mps 757 mmHg 65%
    08:00 +8°C° 0 mm 2 mps 757 mmHg 61%
    09:00 +10°C° 0 mm 3 mps 757 mmHg 55%
    10:00 +12°C° 0 mm 3 mps 757 mmHg 48%
    11:00 +14°C° 0 mm 3 mps 756 mmHg 42%
    12:00 +14°C° 0 mm 4 mps 756 mmHg 41%
    13:00 +15°C° 0 mm 4 mps 755 mmHg 41%
    14:00 +16°C° 0 mm 5 mps 754 mmHg 40%
    15:00 +15°C° 0 mm 5 mps 754 mmHg 45%
    16:00 +14°C° 0 mm 5 mps 754 mmHg 50%
    17:00 +13°C° 0 mm 6 mps 753 mmHg 55%
    18:00 +10°C° 0 mm 5 mps 753 mmHg 61%
    19:00 +9°C° 0 mm 5 mps 753 mmHg 67%
    20:00 +7°C° 0 mm 4 mps 753 mmHg 73%
    21:00 +7°C° 0 mm 4 mps 753 mmHg 75%
    22:00 +7°C° 0 mm 4 mps 753 mmHg 77%
    23:00 +7°C° 0 mm 4 mps 753 mmHg 79%

    26 March, Tuesday

    Time Temperature Precipitation Wind Pressure Humidity
    00:00 +7°C° 0 mm 4 mps 753 mmHg 80%
    01:00 +7°C° 0 mm 3 mps 752 mmHg 81%
    02:00 +7°C° 0 mm 3 mps 752 mmHg 82%
    03:00 +7°C° 0 mm 3 mps 752 mmHg 80%
    04:00 +7°C° 0 mm 3 mps 752 mmHg 79%
    05:00 +7°C° 0 mm 3 mps 752 mmHg 78%
    06:00 +8°C° 0 mm 2 mps 752 mmHg 73%
    07:00 +9°C° 0 mm 2 mps 752 mmHg 69%
    08:00 +10°C° 0 mm 2 mps 753 mmHg 64%
    09:00 +12°C° 0 mm 3 mps 753 mmHg 62%
    10:00 +13°C° 0 mm 4 mps 753 mmHg 60%
    11:00 +14°C° 0 mm 5 mps 753 mmHg 58%
    12:00 +14°C° 0 mm 6 mps 754 mmHg 61%
    13:00 +12°C° 0 mm 7 mps 754 mmHg 64%
    14:00 +11°C° 0 mm 7 mps 754 mmHg 66%
    15:00 +10°C° 0.1 mm 8 mps 754 mmHg 67%
    16:00 +7°C° 0.1 mm 8 mps 755 mmHg 69%
    17:00 +6°C° 0.1 mm 9 mps 755 mmHg 70%
    18:00 +6°C° 0 mm 8 mps 756 mmHg 69%
    19:00 +6°C° 0 mm 7 mps 756 mmHg 68%
    20:00 +5°C° 0 mm 6 mps 757 mmHg 67%
    21:00 +5°C° 0 mm 6 mps 757 mmHg 66%
    22:00 +5°C° 0 mm 6 mps 758 mmHg 65%
    23:00 +5°C° 0 mm 6 mps 758 mmHg 63%

    27 March, Wednesday

    Time Temperature Precipitation Wind Pressure Humidity
    00:00 +4°C° 0 mm 6 mps 758 mmHg 64%
    01:00 +4°C° 0 mm 7 mps 758 mmHg 65%
    02:00 +4°C° 0 mm 7 mps 759 mmHg 65%
    03:00 +3°C° 0 mm 7 mps 759 mmHg 67%
    04:00 +2°C° 0 mm 8 mps 759 mmHg 69%
    05:00 +2°C° 0 mm 8 mps 760 mmHg 71%
    06:00 +2°C° 0 mm 8 mps 760 mmHg 68%
    07:00 +2°C° 0 mm 8 mps 761 mmHg 66%
    08:00 +2°C° 0 mm 8 mps 761 mmHg 64%
    09:00 +4°C° 0 mm 7 mps 761 mmHg 58%
    10:00 +6°C° 0 mm 7 mps 761 mmHg 51%
    11:00 +8°C° 0 mm 6 mps 762 mmHg 45%
    12:00 +9°C° 0 mm 6 mps 762 mmHg 42%
    13:00 +9°C° 0 mm 6 mps 761 mmHg 40%
    14:00 +10°C° 0 mm 5 mps 761 mmHg 37%
    15:00 +9°C° 0 mm 5 mps 761 mmHg 39%
    16:00 +9°C° 0 mm 5 mps 761 mmHg 41%
    17:00 +8°C° 0 mm 5 mps 761 mmHg 42%
    18:00 +7°C° 0 mm 4 mps 762 mmHg 47%
    19:00 +7°C° 0 mm 3 mps 762 mmHg 52%
    20:00 +5°C° 0 mm 2 mps 762 mmHg 57%
    21:00 +5°C° 0 mm 2 mps 762 mmHg 59%
    22:00 +6°C° 0 mm 1 mps 762 mmHg 60%
    23:00 +5°C° 0 mm 1 mps 762 mmHg 62%

    28 March, Thursday

    Time Temperature Precipitation Wind Pressure Humidity
    00:00 +4°C° 0 mm 2 mps 763 mmHg 61%
    01:00 +4°C° 0 mm 2 mps 763 mmHg 60%
    02:00 +3°C° 0 mm 3 mps 763 mmHg 60%
    03:00 +3°C° 0 mm 4 mps 763 mmHg 61%
    04:00 +3°C° 0 mm 4 mps 763 mmHg 62%
    05:00 +2°C° 0 mm 5 mps 763 mmHg 63%
    06:00 +2°C° 0 mm 6 mps 763 mmHg 60%
    07:00 +3°C° 0 mm 6 mps 764 mmHg 58%
    08:00 +4°C° 0 mm 7 mps 764 mmHg 55%
    09:00 +5°C° 0 mm 7 mps 764 mmHg 51%
    10:00 +6°C° 0 mm 7 mps 764 mmHg 46%
    11:00 +8°C° 0 mm 7 mps 764 mmHg 41%
    12:00 +8°C° 0 mm 7 mps 764 mmHg 40%
    13:00 +8°C° 0 mm 7 mps 764 mmHg 40%
    14:00 +8°C° 0 mm 7 mps 764 mmHg 39%
    15:00 +8°C° 0 mm 6 mps 764 mmHg 41%
    16:00 +8°C° 0 mm 6 mps 764 mmHg 42%
    17:00 +7°C° 0 mm 6 mps 764 mmHg 44%
    18:00 +6°C° 0 mm 5 mps 764 mmHg 49%
    19:00 +5°C° 0 mm 4 mps 764 mmHg 54%
    20:00 +4°C° 0 mm 3 mps 764 mmHg 59%
    21:00 +3°C° 0 mm 3 mps 764 mmHg 60%
    22:00 +4°C° 0 mm 2 mps 764 mmHg 62%
    23:00 +4°C° 0 mm 2 mps 764 mmHg 64%
    Show more